Location: Clairmont
(55.2667°N, 118.8000°W)
Time: 15:05:29
(UTC+00:00)

Envisat - Pass Details

Date: 28 October 2020
Orbit: 764 x 766 km, 98.1° (Epoch: 03 December)

Event Time Altitude Azimuth Distance (km) Brightness Sun altitude
Rises 13:00:16 0° 21° (NNE) 3,248 6.5 -16.5°
Reaches altitude 10° 13:02:58 10° 35° (NE) 2,316 5.9 -16.1°
Maximum altitude 13:07:12 26° 91° (E) 1,490 5.4 -15.5°
Drops below altitude 10° 13:11:24 10° 147° (SSE) 2,301 6.0 -14.9°
Sets 13:14:03 0° 160° (SSE) 3,221 6.5 -14.5°
